Regional Weather Roundup
Issued by NWS

Home | Current Version | Previous Version | Text Only | Print | Product List | Glossary On
Versions: 1 2 3 4 5 6 7 8 9 10 11 12 13 14 15 16 17 18 19 20 21 22 23 24 25 26 27 28 29 30 31 32 33 34 35 36 37 38 39 40 41 42 43 44 45 46 47 48 49 50
000
ASUS44 KFWD 300003
RWRTX
NORTH TEXAS HOURLY WEATHER ROUNDUP
NATIONAL WEATHER SERVICE FORT WORTH TX
700 PM CDT FRI AUG 29 2014

NOTE: "FAIR" INDICATES FEW OR NO CLOUDS BELOW 12,000 FEET WITH NO
SIGNIFICANT WEATHER AND/OR OBSTRUCTIONS TO VISIBILITY.

TXZ118-119-300100-
DALLAS/FORT WORTH METROPLEX

CITY           SKY/WX    TMP DP  RH WIND       PRES   REMARKS
DFW AIRPORT    PTSUNNY   86  68  54 SE15      29.85R
6HR MIN TEMP:  84; 6HR MAX TEMP:  94;

DALLAS LOVE    PTSUNNY   85  69  58 E12       29.86S
6HR MIN TEMP:  85; 6HR MAX TEMP:  94;

FTW MEACHAM    MOSUNNY   91  66  43 N6        29.84R HX  93
6HR MIN TEMP:  84; 6HR MAX TEMP:  95;

DAL-EXECUTIVE  MOSUNNY   86  64  47 S6        29.86S
6HR MIN TEMP:  84; 6HR MAX TEMP:  96;

FTW-ALLIANCE   PTSUNNY   87  67  51 NE6       29.84S HX  90
6HR MIN TEMP:  83; 6HR MAX TEMP:  91;

FTW-NAS-JRB    PTSUNNY   93  61  34 CALM      29.88S HX  93
6HR MIN TEMP:  86; 6HR MAX TEMP:  97;

FTW-SPINKS     MOSUNNY   88  68  51 SE9       29.87R HX  91
ARLINGTON      MOSUNNY   86  68  54 SE13      29.85S
6HR MIN TEMP:  85; 6HR MAX TEMP:  94;

ADDISON        MOSUNNY   84  66  54 SE10G20   29.87R
MESQUITE       MOSUNNY   81  72  74 SW6       29.87R
LANCASTER      PTSUNNY   75  71  85 SE3       29.87F
6HR MIN TEMP:  71; 6HR MAX TEMP:  93; 6HR PCP:  1.96;

$$

TXZ091>094-102>105-117-120-121-131>134-300100-
NORTH CENTRAL TEXAS

CITY           SKY/WX    TMP DP  RH WIND       PRES   REMARKS
SHRMAN/DENISON MOSUNNY   87  65  47 CALM      29.87S
6HR MIN TEMP:  84; 6HR MAX TEMP:  91;

GAINESVILLE    CLOUDY    83  69  62 NE3       29.89S
6HR MIN TEMP:  82; 6HR MAX TEMP:  86;

BOWIE          CLOUDY    83  69  63 CALM      29.88S
6HR MIN TEMP:  79; 6HR MAX TEMP:  84; 6HR PCP:  0.01;

BRIDGEPORT     CLOUDY    83  67  58 NE3       29.89R
6HR MIN TEMP:  81; 6HR MAX TEMP:  88; 6HR PCP:  0.01;

DECATUR        CLOUDY    81  69  67 N3        29.88S
6HR MIN TEMP:  81; 6HR MAX TEMP:  87;

DENTON         CLOUDY    87  66  49 N3        29.85S
6HR MIN TEMP:  83; 6HR MAX TEMP:  91;

MCKINNEY       PTSUNNY   84  68  58 SE20G32   29.86R
6HR MIN TEMP:  83; 6HR MAX TEMP:  92;

GREENVILLE     CLOUDY    86  70  58 CALM      29.89R HX  90
ROCKWALL       PTSUNNY   76  73  89 CALM      29.87R
6HR MIN TEMP:  76; 6HR MAX TEMP:  92; 6HR PCP:  0.05;

TERRELL        CLOUDY    85  73  67 W8        29.88R HX  91
6HR MIN TEMP:  85; 6HR MAX TEMP:  92;

WAXAHACHIE     PTSUNNY   85  67  54 SE6       29.88S
6HR MIN TEMP:  79; 6HR MAX TEMP:  94;

CLEBURNE       PTSUNNY   90  66  45 E15       29.88R HX  92
GRANBURY       MOSUNNY   90  63  40 CALM      29.86R HX  91
6HR MIN TEMP:  88; 6HR MAX TEMP:  94;

$$

TXZ083>090-098>101-113>116-127>130-139>142-154-155-300100-
WESTERN NORTH TEXAS

CITY           SKY/WX    TMP DP  RH WIND       PRES   REMARKS
WICHITA FALLS  MOSUNNY   86  66  51 SW9       29.86S
6HR MIN TEMP:  72; 6HR MAX TEMP:  87; 6HR PCP:  0.01;

WF-KICKAPOO    MOSUNNY   87  64  46 SW6       29.88F
6HR MIN TEMP:  70; 6HR MAX TEMP:  87;

VERNON         SUNNY     87  66  48 S8        29.88S HX  90
6HR MIN TEMP:  68; 6HR MAX TEMP: 100;

ABILENE        CLOUDY    84  67  56 E7        29.90S
6HR MIN TEMP:  83; 6HR MAX TEMP:  91;

BRECKENRIDGE   PTSUNNY   79  68  70 CALM      29.89S HAZE
6HR MIN TEMP:  74; 6HR MAX TEMP:  90;

GRAHAM         PTSUNNY   84  70  63 CALM      29.87R
6HR MIN TEMP:  77; 6HR MAX TEMP:  84;

MINERAL WELLS  CLOUDY    84  71  65 N5        29.85S
6HR MIN TEMP:  81; 6HR MAX TEMP:  90;

STEPHENVILLE   CLOUDY    83  69  62 CALM      29.90R
6HR MIN TEMP:  83; 6HR MAX TEMP:  92;

COMANCHE         N/A     82  68  60 NE10G16   29.88R
6HR MIN TEMP:  79; 6HR MAX TEMP:  94; 6HR PCP:  0.02;

BROWNWOOD      MOSUNNY   86  68  54 E6        29.87S
COLEMAN        MOSUNNY   85  67  54 NE5       29.89R
6HR MIN TEMP:  82; 6HR MAX TEMP:  92;

BRADY          SUNNY     82  63  51 E9        29.88R
$$

TXZ143>147-156>162-174-175-300100-
CENTRAL TEXAS

CITY           SKY/WX    TMP DP  RH WIND       PRES   REMARKS
WACO           PTSUNNY   90  69  50 SE17G24   29.83R HX  94
6HR MIN TEMP:  87; 6HR MAX TEMP:  95;

WACO-TSTC      SUNNY     90  70  51 SE24      29.85R HX  95
WACO-MCGREGOR  PTSUNNY   88  68  51 SE20      29.85R HX  91
6HR MIN TEMP:  88; 6HR MAX TEMP:  97;

HILLSBORO      LGT RAIN  80  74  80 N8        29.87R
6HR MIN TEMP:  80; 6HR MAX TEMP:  95; 6HR PCP:  0.03;

CORSICANA      PTSUNNY   88  70  55 SE7       29.87R HX  93
6HR MIN TEMP:  85; 6HR MAX TEMP:  92;

MEXIA          PTSUNNY   83  72  68 SE10      29.86R
6HR MIN TEMP:  83; 6HR MAX TEMP:  89; 6HR PCP:  0.26;

CAMERON        CLOUDY    78  72  82 SE7       29.83F
6HR MIN TEMP:  76; 6HR MAX TEMP:  94; 6HR PCP:  0.01;

TEMPLE         PTSUNNY   82  64  54 SE14      29.84F
6HR MIN TEMP:  81; 6HR MAX TEMP:  97; 6HR PCP:  0.02;

KILLEEN        PTSUNNY   86  68  54 SE17      29.83F
KILLEEN-SKYLRK PTSUNNY   88  66  48 E13       29.84S HX  90
6HR MIN TEMP:  84; 6HR MAX TEMP:  97;

FORT HOOD      PTSUNNY   88  67  49 E15G21    29.84F HX  91
6HR MIN TEMP:  87; 6HR MAX TEMP:  99;

GATESVILLE     MOSUNNY   86  70  58 SE8G20    29.86R HX  90
$$

TXZ095>097-106>112-122>126-135>138-148>153-164>167-300100-
EAST TEXAS

CITY           SKY/WX    TMP DP  RH WIND       PRES   REMARKS
PARIS          PTCLDY    84  66  54 S6        29.89R
6HR MIN TEMP:  79; 6HR MAX TEMP:  88;

SULPHUR SPRNGS MOCLDY    86  70  59 SE3       29.90R HX  91
6HR MIN TEMP:  80; 6HR MAX TEMP:  90;

MOUNT PLEASANT MOCLDY    76  72  89 NW3       29.90S
6HR MIN TEMP:  73; 6HR MAX TEMP:  92; 6HR PCP:  0.58;

GILMER         MOCLDY    79  73  83 CALM      29.91R
MINEOLA        PTCLDY    88  73  62 E3        29.89R HX  96
TYLER          MOCLDY    83  70  64 CALM      29.88R
6HR MIN TEMP:  79; 6HR MAX TEMP:  91; 6HR PCP: TRACE;

LONGVIEW       CLOUDY    85  65  51 SE16G24   29.89R
6HR MIN TEMP:  84; 6HR MAX TEMP:  96; 6HR PCP: TRACE;

MARSHALL       MOCLDY    89  67  48 SE5       29.91R HX  93
6HR MIN TEMP:  89; 6HR MAX TEMP:  98;

ATHENS         CLOUDY    86  73  66 CALM      29.86S HX  93
PALESTINE      CLOUDY    84  71  66 E8        29.90R
JACKSONVILLE   RAIN      75  73  92 SW3       29.93S
HENDERSON      CLOUDY    87  68  53 S7        29.90R HX  90
6HR MIN TEMP:  86; 6HR MAX TEMP:  95;

NACOGDOCHES    CLOUDY    86  72  62 SE13G18   29.90R HX  92
6HR MIN TEMP:  86; 6HR MAX TEMP:  93;

LUFKIN         CLOUDY    82  71  69 SE13      29.90R
6HR MIN TEMP:  82; 6HR MAX TEMP:  94;

$$

SUPPLEMENTAL OBSERVATIONS (CENTRAL)

CITY           SKY/WX    TMP DP  RH WIND       PRES   REMARKS
$$

SUPPLEMENTAL OBSERVATIONS (WEST)

CITY           SKY/WX    TMP DP  RH WIND       PRES   REMARKS
$$

SUPPLEMENTAL OBSERVATIONS (EAST)

CITY           SKY/WX    TMP DP  RH WIND       PRES   REMARKS
$$

SUPPLEMENTAL OBSERVATIONS ARE A COLLECTION OF AUTOMATED INSTRUMENTS
THAT ARE MAINTAINED BY A VARIETY OF FEDERAL AND STATE AGENCIES.
CERTAIN ELEMENTS...SUCH AS HUMIDITY VALUES AND SUSTAINED WIND
SPEEDS...MAY BE APPROXIMATED.



USA.gov is the U.S. government's official web portal to all federal, state and local government web resources and services.